Flag for U.S.A. Weather past 2 weeks in Sacramento, California, U.S.A.

Now
67 °F

Sunny.


Feels Like: 67 °F
Forecast: 50 / 78 °F
Wind: 8 mph from Southwest

Location: Sacramento Executive Airport

Current Time: Mar 27, 2015 at 9:11:40 PM

Latest Report: Mar 27, 2015 at 7:53 PM


Visibility: 10 mi

Pressure: 30.05 "Hg

Humidity: 61%

Dew point: 53 °F

Location of SacramentoLocation

Historic Weather in Sacramento — Graph

°F

Sacramento temperature yesterday

Maximum temperature yesterday: 82 °F (at 3:53 PM)
Minimum temperature yesterday: 50 °F (at 6:53 AM)
Average temperature yesterday: 65 °F

Past Weeks' High & Low Weather Summary

 TemperatureHumidityPressure
High82 °F (Mar 14, 3:53 PM)93% (Mar 13, 6:53 AM)30.29 "Hg (Mar 13, 6:53 AM)
Low47 °F (Mar 18, 5:53 AM)22% (Mar 27, 2:53 PM)29.95 "Hg (Mar 19, 6:53 PM)
Average63 °F64%30.09 "Hg
* Reported Mar 12 7:53 PM — Mar 27 7:53 PM, Sacramento, Weather by CustomWeather, © 2015

Note: Actual official high and low records may vary slightly from our data, if they occured in-between our weather recording intervals... More about our weather records

Advertising

Sacramento weather history for previous 24 hours

 ConditionsComfort  
Time TempWeatherWind HumidityBarometerVisibility
7:53 PM
Fri, Mar 27
67 °FSunny.8 mph61%30.05 "Hg10 mi
6:53 PM71 °FSunny.8 mph53%30.04 "Hg10 mi
5:53 PM75 °FSunny.9 mph50%30.04 "Hg10 mi
4:53 PM78 °FSunny.14 mph40%30.04 "Hg10 mi
3:53 PM82 °FSunny.12 mph29%30.05 "Hg10 mi
2:53 PM82 °FSunny.8 mph22%30.06 "Hg10 mi
1:53 PM80 °FSunny.9 mph38%30.09 "Hg10 mi
12:53 PM78 °FSunny.6 mph48%30.11 "Hg10 mi
11:53 AM76 °FSunny.No wind48%30.11 "Hg10 mi
10:53 AM72 °FSunny.No wind52%30.12 "Hg10 mi
9:53 AM67 °FSunny.No wind63%30.12 "Hg10 mi
8:53 AM63 °FSunny.No wind73%30.11 "Hg10 mi
7:53 AM55 °FClear.No wind90%30.10 "Hg10 mi
6:53 AM52 °FFog.No wind93%30.08 "Hg5 mi
5:53 AM54 °FClear.No wind90%30.07 "Hg10 mi
4:53 AM53 °FClear.No wind89%30.07 "Hg10 mi
3:53 AM54 °FClear.No wind93%30.07 "Hg10 mi
2:53 AM56 °FClear.No wind87%30.08 "Hg10 mi
1:53 AM57 °FClear.No wind87%30.09 "Hg10 mi
12:53 AM58 °FClear.No wind81%30.08 "Hg10 mi
11:53 PM
Thu, Mar 26
60 °FClear.No wind80%30.08 "Hg10 mi
10:53 PM61 °FClear.No wind78%30.09 "Hg10 mi
9:53 PM63 °FClear.3 mph73%30.08 "Hg10 mi
Weather by CustomWeather, © 2015

See weather overviewHow to use our weather pages